Location: Cheching
(60.0667°N, 164.2167°W)
Time: 00:14:58
(UTC+00:00)

DX 1 - Pass Details

Date: 25 January 2021
Orbit: 618 x 631 km, 98.5° (Epoch: 07 March)

Event Time Altitude Azimuth Distance (km) Brightness Sun altitude
Rises 17:51:46 0° 205° (SSW) 2,910 ? -11.1°
Reaches altitude 10° 17:54:28 10° 223° (SW) 2,006 ? -10.7°
Maximum altitude 17:57:41 20° 271° (W) 1,460 ? -10.4°
Enters shadow 18:00:55 10° 319° (NW) 2,006 ? -10.0°
